Snowfall_Accumulation
0.0 0.0 0.0 0.0 0.0 0.0 0.0 0.0 0.0 0.0 0.0 0.0 0.0 0.0 0.0 0.0 0.0 0.0 0.0 0.0 0.0 0.0 0.0 0.0 0.0 0.0 0.0 0.0 0.0 0.0 0.0 0.0
0.0 0.0 0.0 0.0 0.0 0.0 0.0 0.0 0.0 0.0 0.0 0.0 0.0 0.0 0.0 0.0 0.0 0.0 0.0 0.0 0.0 0.0 0.0 0.0 0.0 0.0 0.0 0.0 0.0 0.0 0.0 0.0
0.0 0.0 0.0 0.0 0.0 0.0 0.0 0.0 0.0 0.0 0.0 0.0 0.0 0.0 0.0 0.0 0.0 0.0 0.0 0.0 0.0 0.0 0.0 0.0 0.0 0.0 0.0 0.0 0.0 0.1 0.0 0.0
0.0 0.0 0.0 0.0 0.0 0.0 0.0 0.0 0.0 0.0 0.0 0.0 0.0 0.0 0.0 0.0 0.0 0.0 0.0 0.0 0.0 0.0 0.0 0.0 0.0 0.0 0.0 0.0 0.0 0.1 0.7 0.0
0.0 0.0 0.0 0.0 0.0 0.0 0.0 0.0 0.0 0.0 0.0 0.0 0.0 0.0 0.0 0.0 0.0 0.0 0.0 0.0 0.0 0.0 0.0 0.0 0.0 0.0 0.0 0.0 0.0 0.2 0.4 0.3
0.0 0.0 0.0 0.0 0.0 0.0 0.0 0.0 0.0 0.0 0.0 0.0 0.0 0.0 0.0 0.0 0.0 0.0 0.0 0.0 0.0 0.0 0.0 0.0 0.0 0.0 0.0 0.0 0.0 0.2 0.1 0.9
0.0 0.0 0.0 0.0 0.0 0.0 0.0 0.0 0.0 0.0 0.0 0.0 0.0 0.0 0.0 0.0 0.0 0.0 0.0 0.0 0.0 0.0 0.0 0.0 0.0 0.0 0.0 0.0 0.1 0.2 0.2 0.5
0.0 0.0 0.0 0.0 0.0 0.0 0.0 0.0 0.0 0.0 0.0 0.0 0.0 0.0 0.0 0.0 0.0 0.0 0.0 0.0 0.0 0.0 0.0 0.0 0.0 0.0 0.1 0.1 0.4 0.4 0.5 0.9
0.1 0.0 0.0 0.0 0.0 0.0 0.0 0.0 0.0 0.0 0.0 0.0 0.0 0.0 0.0 0.0 0.0 0.0 0.0 0.1 0.1 0.0 0.1 0.0 0.1 0.1 0.2 0.4 0.8 1.0 1.1 1.1
1.0 0.0 0.6 0.5 0.3 0.2 0.1 0.0 0.0 0.0 0.0 0.0 0.0 0.0 0.0 0.0 0.0 0.0 0.0 0.1 0.1 0.1 0.2 0.3 0.2 0.3 0.4 1.1 1.7 2.3 1.9 2.0
1.8 2.8 2.6 1.2 1.0 0.4 0.1 0.0 0.1 0.0 0.1 0.0 0.0 0.0 0.0 0.0 0.0 0.0 0.1 0.2 0.5 0.8 0.8 0.8 0.8 0.8 0.8 1.1 1.4 1.7 2.5 2.5
3.8 6.9 5.5 3.8 2.8 1.9 1.4 1.1 1.0 0.4 0.4 0.1 0.0 0.1 0.0 0.0 0.0 0.2 0.8 1.1 1.7 1.9 1.8 2.1 2.0 1.9 1.5 1.0 1.3 1.3 1.7 2.4
3.5 2.6 3.9 8.2 7.7 4.4 3.3 2.0 2.1 2.2 1.6 1.2 1.0 1.0 0.7 0.7 0.6 0.6 1.0 1.6 2.0 2.8 2.9 2.3 2.1 2.2 2.4 1.6 1.1 0.6 0.8 1.2
8.3 7.1 6.0 4.4 6.2 6.7 5.0 3.2 3.1 4.1 2.7 2.5 1.9 1.5 1.1 1.1 1.9 2.6 1.1 1.7 1.7 2.4 2.1 2.1 2.5 2.2 2.0 1.4 0.7 0.8 1.4 2.2
7.3 7.2 9.7 9.4 5.1 4.8 4.1 3.0 6.7 5.9 3.6 3.4 3.7 3.7 2.4 2.1 1.9 2.2 2.3 3.7 3.9 4.3 3.9 2.9 3.1 2.4 2.4 1.3 0.6 0.7 0.7 1.6
5.9 6.9 5.1 5.6 6.6 4.1 3.4 3.2 1.7 3.1 3.9 2.8 2.3 2.6 4.4 2.8 2.6 3.3 4.2 3.7 3.7 4.0 3.5 3.6 5.3 5.1 5.1 5.1 2.9 2.2 2.0 1.0
1.7 1.3 1.9 1.1 0.6 0.8 0.8 0.4 0.4 0.3 0.8 1.0 1.4 0.7 1.6 2.5 2.2 2.5 2.2 1.6 3.2 4.6 7.1 5.8 10.0 8.3 6.6 5.4 2.8 3.4 2.8 2.9
1.5 0.6 0.6 0.5 0.3 0.4 0.1 0.0 0.0 0.0 0.1 0.2 0.2 0.4 0.5 0.7 1.3 1.1 1.6 2.4 1.7 6.2 8.7 9.9 5.5 8.3 5.9 5.7 5.2 4.5 4.1 3.8
0.2 0.5 0.4 0.3 0.2 0.3 0.0 0.0 0.0 0.0 0.1 0.3 0.4 0.7 0.9 1.9 1.6 2.0 2.1 2.0 2.2 2.3 1.2 2.3 2.9 3.3 3.5 7.6 4.8 9.8 6.6 5.5